When you browse on this site, cookies collect data to enhance your experience and personalize the content and advertising you see.
Visit our Privacy Policy to learn more. By continuing to use the site, you agree to this use of cookies and data.
  • In Romania
  • List of Countries
  • For 7 days
  • Water Temperature
  • Weather Map
  • Weather Widgets
  • user-avatar
    Login

    Hourly Weather Klagenfurt

    Today, 20 October, Sunday

    Time Temperature Precipitation Wind Pressure Humidity
    00:00 +11°C° 0 mm 1 mps 689 mmHg 97%
    01:00 +12°C° 0 mm 2 mps 689 mmHg 98%
    02:00 +12°C° 0 mm 2 mps 689 mmHg 98%
    03:00 +12°C° 0 mm 1 mps 689 mmHg 98%
    04:00 +12°C° 0 mm 1 mps 689 mmHg 98%
    05:00 +12°C° 0 mm 1 mps 689 mmHg 97%
    06:00 +12°C° 0 mm 1 mps 689 mmHg 97%
    07:00 +12°C° 0 mm 2 mps 690 mmHg 98%
    08:00 +13°C° 0 mm 2 mps 690 mmHg 94%
    09:00 +14°C° 0 mm 2 mps 690 mmHg 90%
    10:00 +15°C° 0 mm 2 mps 690 mmHg 86%
    11:00 +16°C° 0.1 mm 2 mps 691 mmHg 83%
    12:00 +16°C° 0.1 mm 2 mps 691 mmHg 79%
    13:00 +17°C° 0.1 mm 3 mps 691 mmHg 76%
    14:00 +16°C° 0 mm 2 mps 690 mmHg 79%
    15:00 +16°C° 0 mm 2 mps 690 mmHg 81%
    16:00 +15°C° 0 mm 2 mps 690 mmHg 83%
    17:00 +14°C° 0 mm 2 mps 690 mmHg 87%
    18:00 +13°C° 0 mm 2 mps 690 mmHg 91%
    19:00 +12°C° 0 mm 2 mps 690 mmHg 95%
    20:00 +12°C° 0 mm 2 mps 690 mmHg 96%
    21:00 +12°C° 0 mm 2 mps 691 mmHg 96%
    22:00 +12°C° 0 mm 2 mps 691 mmHg 96%
    23:00 +12°C° 0 mm 2 mps 691 mmHg 96%

    Tomorrow, 21 October, Monday

    Time Temperature Precipitation Wind Pressure Humidity
    00:00 +12°C° 0 mm 2 mps 691 mmHg 96%
    01:00 +12°C° 0 mm 2 mps 691 mmHg 96%
    02:00 +12°C° 0 mm 2 mps 691 mmHg 96%
    03:00 +12°C° 0 mm 1 mps 691 mmHg 97%
    04:00 +12°C° 0 mm 1 mps 691 mmHg 97%
    05:00 +12°C° 0 mm 1 mps 691 mmHg 97%
    06:00 +12°C° 0 mm 1 mps 692 mmHg 96%
    07:00 +12°C° 0 mm 1 mps 692 mmHg 96%
    08:00 +13°C° 0 mm 2 mps 692 mmHg 92%
    09:00 +15°C° 0 mm 2 mps 693 mmHg 87%
    10:00 +17°C° 0 mm 2 mps 693 mmHg 82%
    11:00 +18°C° 0 mm 2 mps 693 mmHg 79%
    12:00 +19°C° 0 mm 2 mps 694 mmHg 75%
    13:00 +20°C° 0 mm 2 mps 694 mmHg 71%
    14:00 +19°C° 0 mm 2 mps 694 mmHg 75%
    15:00 +18°C° 0 mm 2 mps 693 mmHg 78%
    16:00 +18°C° 0 mm 2 mps 693 mmHg 82%
    17:00 +16°C° 0 mm 1 mps 693 mmHg 86%
    18:00 +14°C° 0 mm 1 mps 693 mmHg 91%
    19:00 +13°C° 0 mm 1 mps 693 mmHg 95%
    20:00 +13°C° 0 mm 1 mps 693 mmHg 95%
    21:00 +12°C° 0 mm 1 mps 693 mmHg 94%
    22:00 +12°C° 0 mm 1 mps 693 mmHg 94%
    23:00 +12°C° 0 mm 1 mps 693 mmHg 93%

    Day after tomorrow, 22 October, Tuesday

    Time Temperature Precipitation Wind Pressure Humidity
    00:00 +11°C° 0 mm 1 mps 693 mmHg 92%
    01:00 +11°C° 0 mm 1 mps 693 mmHg 92%
    02:00 +11°C° 0 mm 1 mps 693 mmHg 91%
    03:00 +11°C° 0 mm 1 mps 693 mmHg 91%
    04:00 +11°C° 0 mm 1 mps 693 mmHg 90%
    05:00 +10°C° 0 mm 0 mps 693 mmHg 89%
    06:00 +10°C° 0 mm 0 mps 693 mmHg 89%
    07:00 +9°C° 0 mm 0 mps 694 mmHg 88%
    08:00 +12°C° 0 mm 0 mps 694 mmHg 82%
    09:00 +14°C° 0 mm 0 mps 695 mmHg 75%
    10:00 +16°C° 0 mm 0 mps 695 mmHg 69%
    11:00 +17°C° 0 mm 0 mps 695 mmHg 66%
    12:00 +20°C° 0 mm 1 mps 695 mmHg 64%
    13:00 +21°C° 0 mm 1 mps 695 mmHg 61%
    14:00 +18°C° 0 mm 0 mps 695 mmHg 67%
    15:00 +17°C° 0 mm 0 mps 694 mmHg 73%
    16:00 +16°C° 0 mm 0 mps 694 mmHg 79%
    17:00 +15°C° 0 mm 0 mps 694 mmHg 83%
    18:00 +13°C° 0 mm 0 mps 694 mmHg 87%
    19:00 +12°C° 0 mm 1 mps 694 mmHg 91%
    20:00 +11°C° 0 mm 0 mps 694 mmHg 91%
    21:00 +11°C° 0 mm 0 mps 693 mmHg 90%
    22:00 +10°C° 0 mm 0 mps 693 mmHg 90%
    23:00 +10°C° 0 mm 0 mps 693 mmHg 90%

    23 October, Wednesday

    Time Temperature Precipitation Wind Pressure Humidity
    00:00 +10°C° 0 mm 0 mps 693 mmHg 89%
    01:00 +10°C° 0 mm 0 mps 693 mmHg 89%
    02:00 +9°C° 0 mm 0 mps 692 mmHg 89%
    03:00 +9°C° 0 mm 0 mps 692 mmHg 88%
    04:00 +9°C° 0 mm 0 mps 692 mmHg 88%
    05:00 +9°C° 0 mm 0 mps 692 mmHg 87%
    06:00 +9°C° 0 mm 0 mps 692 mmHg 86%
    07:00 +9°C° 0 mm 0 mps 691 mmHg 85%
    08:00 +11°C° 0 mm 0 mps 692 mmHg 79%
    09:00 +14°C° 0 mm 0 mps 692 mmHg 73%
    10:00 +16°C° 0 mm 0 mps 692 mmHg 66%
    11:00 +17°C° 0 mm 0 mps 692 mmHg 63%
    12:00 +18°C° 0 mm 0 mps 692 mmHg 60%
    13:00 +21°C° 0 mm 1 mps 692 mmHg 56%
    14:00 +20°C° 0 mm 1 mps 691 mmHg 63%
    15:00 +19°C° 0 mm 1 mps 691 mmHg 70%
    16:00 +16°C° 0 mm 0 mps 690 mmHg 77%
    17:00 +15°C° 0 mm 1 mps 690 mmHg 80%
    18:00 +14°C° 0 mm 1 mps 690 mmHg 83%
    19:00 +12°C° 0 mm 1 mps 690 mmHg 87%
    20:00 +12°C° 0 mm 1 mps 690 mmHg 86%
    21:00 +11°C° 0 mm 1 mps 690 mmHg 86%
    22:00 +11°C° 0 mm 1 mps 690 mmHg 86%
    23:00 +11°C° 0 mm 1 mps 689 mmHg 86%

    24 October, Thursday

    Time Temperature Precipitation Wind Pressure Humidity
    00:00 +10°C° 0 mm 1 mps 689 mmHg 87%
    01:00 +10°C° 0 mm 1 mps 689 mmHg 87%
    02:00 +10°C° 0 mm 1 mps 689 mmHg 87%
    03:00 +10°C° 0 mm 1 mps 688 mmHg 87%
    04:00 +9°C° 0 mm 1 mps 688 mmHg 87%
    05:00 +9°C° 0 mm 1 mps 688 mmHg 87%
    06:00 +9°C° 0 mm 1 mps 688 mmHg 87%
    07:00 +9°C° 0 mm 1 mps 688 mmHg 87%
    08:00 +12°C° 0 mm 1 mps 688 mmHg 79%
    09:00 +14°C° 0 mm 1 mps 689 mmHg 71%
    10:00 +16°C° 0 mm 1 mps 689 mmHg 64%
    11:00 +19°C° 0 mm 1 mps 689 mmHg 60%
    12:00 +20°C° 0 mm 1 mps 689 mmHg 57%
    13:00 +21°C° 0 mm 1 mps 689 mmHg 54%
    14:00 +20°C° 0 mm 1 mps 689 mmHg 60%
    15:00 +19°C° 0 mm 1 mps 688 mmHg 67%
    16:00 +18°C° 0 mm 1 mps 688 mmHg 73%
    17:00 +15°C° 0 mm 1 mps 688 mmHg 78%
    18:00 +13°C° 0 mm 1 mps 688 mmHg 84%
    19:00 +12°C° 0 mm 1 mps 688 mmHg 89%
    20:00 +11°C° 0 mm 1 mps 688 mmHg 86%
    21:00 +11°C° 0 mm 1 mps 688 mmHg 83%
    22:00 +11°C° 0 mm 1 mps 688 mmHg 80%
    23:00 +9°C° 0 mm 0 mps 688 mmHg 79%

    25 October, Friday

    Time Temperature Precipitation Wind Pressure Humidity
    00:00 +9°C° 0 mm 0 mps 688 mmHg 78%
    01:00 +9°C° 0 mm 0 mps 688 mmHg 77%
    02:00 +9°C° 0 mm 0 mps 688 mmHg 77%
    03:00 +9°C° 0 mm 0 mps 688 mmHg 77%
    04:00 +8°C° 0 mm 0 mps 688 mmHg 77%
    05:00 +8°C° 0 mm 0 mps 688 mmHg 77%
    06:00 +8°C° 0 mm 0 mps 688 mmHg 78%
    07:00 +8°C° 0 mm 0 mps 688 mmHg 78%
    08:00 +10°C° 0 mm 0 mps 689 mmHg 72%
    09:00 +13°C° 0 mm 0 mps 690 mmHg 67%
    10:00 +15°C° 0 mm 0 mps 690 mmHg 61%
    11:00 +16°C° 0 mm 0 mps 691 mmHg 58%
    12:00 +19°C° 0 mm 1 mps 691 mmHg 55%
    13:00 +20°C° 0 mm 1 mps 691 mmHg 52%
    14:00 +17°C° 0 mm 0 mps 690 mmHg 59%
    15:00 +16°C° 0 mm 0 mps 690 mmHg 65%
    16:00 +15°C° 0 mm 0 mps 690 mmHg 71%
    17:00 +13°C° 0 mm 0 mps 690 mmHg 75%
    18:00 +12°C° 0 mm 0 mps 690 mmHg 78%
    19:00 +10°C° 0 mm 0 mps 690 mmHg 82%
    20:00 +10°C° 0 mm 0 mps 690 mmHg 82%
    21:00 +9°C° 0 mm 0 mps 690 mmHg 82%
    22:00 +9°C° 0 mm 0 mps 690 mmHg 81%
    23:00 +9°C° 0 mm 0 mps 690 mmHg 81%
    Show more